Hourly Weather Barmotino

Today, 8 May, Saturday

Time Temperature Precipitation Wind Pressure Humidity
00:00 +15°C° 0 mm 2 mps 756 mmHg 48%
01:00 +14°C° 0 mm 2 mps 756 mmHg 51%
02:00 +14°C° 0 mm 2 mps 756 mmHg 54%
03:00 +13°C° 0 mm 2 mps 756 mmHg 55%
04:00 +14°C° 0 mm 1 mps 756 mmHg 54%
05:00 +14°C° 0 mm 1 mps 756 mmHg 53%
06:00 +14°C° 0 mm 0 mps 756 mmHg 51%
07:00 +16°C° 0 mm 1 mps 756 mmHg 47%
08:00 +19°C° 0 mm 1 mps 756 mmHg 42%
09:00 +20°C° 0 mm 2 mps 756 mmHg 38%
10:00 +20°C° 0 mm 3 mps 756 mmHg 36%
11:00 +21°C° 0 mm 3 mps 756 mmHg 34%
12:00 +22°C° 0 mm 4 mps 755 mmHg 32%
13:00 +23°C° 0 mm 4 mps 755 mmHg 32%
14:00 +23°C° 0 mm 4 mps 755 mmHg 32%
15:00 +23°C° 0 mm 4 mps 755 mmHg 32%
16:00 +23°C° 0 mm 4 mps 755 mmHg 36%
17:00 +22°C° 0 mm 3 mps 754 mmHg 40%
18:00 +21°C° 0 mm 3 mps 754 mmHg 44%
19:00 +20°C° 0 mm 3 mps 754 mmHg 46%
20:00 +19°C° 0 mm 3 mps 754 mmHg 48%
21:00 +18°C° 0 mm 3 mps 755 mmHg 51%
22:00 +17°C° 0 mm 2 mps 754 mmHg 54%
23:00 +16°C° 0 mm 2 mps 754 mmHg 57%

Tomorrow, 9 May, Sunday

Time Temperature Precipitation Wind Pressure Humidity
00:00 +16°C° 0 mm 2 mps 754 mmHg 60%
01:00 +15°C° 0 mm 2 mps 754 mmHg 60%
02:00 +15°C° 0 mm 2 mps 754 mmHg 61%
03:00 +15°C° 0 mm 2 mps 754 mmHg 62%
04:00 +15°C° 0 mm 2 mps 754 mmHg 63%
05:00 +16°C° 0 mm 2 mps 754 mmHg 63%
06:00 +16°C° 0 mm 3 mps 754 mmHg 63%
07:00 +18°C° 0 mm 3 mps 754 mmHg 56%
08:00 +20°C° 0 mm 4 mps 754 mmHg 50%
09:00 +22°C° 0 mm 5 mps 754 mmHg 43%
10:00 +23°C° 0 mm 5 mps 754 mmHg 41%
11:00 +23°C° 0 mm 5 mps 754 mmHg 39%
12:00 +25°C° 0 mm 5 mps 754 mmHg 37%
13:00 +26°C° 0 mm 5 mps 753 mmHg 36%
14:00 +26°C° 0 mm 6 mps 753 mmHg 35%
15:00 +26°C° 0 mm 6 mps 753 mmHg 34%
16:00 +25°C° 0 mm 5 mps 753 mmHg 37%
17:00 +23°C° 0 mm 4 mps 753 mmHg 40%
18:00 +22°C° 0 mm 4 mps 753 mmHg 43%
19:00 +21°C° 0 mm 4 mps 753 mmHg 44%
20:00 +20°C° 0 mm 4 mps 753 mmHg 45%
21:00 +19°C° 0 mm 4 mps 754 mmHg 46%
22:00 +19°C° 0 mm 4 mps 754 mmHg 47%
23:00 +18°C° 0 mm 4 mps 754 mmHg 48%

Day after tomorrow, 10 May, Monday

Time Temperature Precipitation Wind Pressure Humidity
00:00 +18°C° 0 mm 4 mps 753 mmHg 49%
01:00 +17°C° 0 mm 4 mps 754 mmHg 51%
02:00 +17°C° 0 mm 4 mps 754 mmHg 52%
03:00 +15°C° 0 mm 4 mps 754 mmHg 53%
04:00 +17°C° 0 mm 4 mps 754 mmHg 54%
05:00 +16°C° 0 mm 5 mps 754 mmHg 55%
06:00 +16°C° 0 mm 5 mps 755 mmHg 56%
07:00 +20°C° 0 mm 6 mps 755 mmHg 50%
08:00 +22°C° 0 mm 7 mps 755 mmHg 44%
09:00 +24°C° 0 mm 8 mps 755 mmHg 37%
10:00 +26°C° 0 mm 7 mps 755 mmHg 34%
11:00 +27°C° 0 mm 7 mps 755 mmHg 31%
12:00 +28°C° 0 mm 7 mps 756 mmHg 28%
13:00 +28°C° 0 mm 7 mps 756 mmHg 28%
14:00 +28°C° 0 mm 7 mps 756 mmHg 27%
15:00 +28°C° 0 mm 6 mps 756 mmHg 27%
16:00 +27°C° 0 mm 5 mps 756 mmHg 33%
17:00 +26°C° 0 mm 5 mps 756 mmHg 38%
18:00 +25°C° 0 mm 4 mps 756 mmHg 43%
19:00 +23°C° 0 mm 5 mps 756 mmHg 44%
20:00 +23°C° 0 mm 6 mps 757 mmHg 45%
21:00 +22°C° 0 mm 7 mps 757 mmHg 45%
22:00 +21°C° 0 mm 7 mps 757 mmHg 46%
23:00 +21°C° 0 mm 7 mps 758 mmHg 46%

11 May, Tuesday

Time Temperature Precipitation Wind Pressure Humidity
00:00 +20°C° 0 mm 7 mps 758 mmHg 46%
01:00 +20°C° 0 mm 6 mps 758 mmHg 48%
02:00 +19°C° 0 mm 6 mps 758 mmHg 49%
03:00 +19°C° 0 mm 5 mps 759 mmHg 51%
04:00 +19°C° 0 mm 5 mps 759 mmHg 54%
05:00 +19°C° 0 mm 5 mps 760 mmHg 57%
06:00 +18°C° 0 mm 4 mps 760 mmHg 59%
07:00 +20°C° 0 mm 5 mps 761 mmHg 54%
08:00 +21°C° 0 mm 5 mps 761 mmHg 50%
09:00 +23°C° 0 mm 6 mps 761 mmHg 45%
10:00 +24°C° 0 mm 6 mps 761 mmHg 41%
11:00 +26°C° 0 mm 7 mps 761 mmHg 38%
12:00 +27°C° 0 mm 7 mps 761 mmHg 34%
13:00 +27°C° 0 mm 7 mps 761 mmHg 34%
14:00 +27°C° 0 mm 7 mps 761 mmHg 34%
15:00 +27°C° 0 mm 7 mps 761 mmHg 34%
16:00 +26°C° 0 mm 7 mps 761 mmHg 38%
17:00 +24°C° 0 mm 6 mps 761 mmHg 41%
18:00 +23°C° 0 mm 6 mps 762 mmHg 45%
19:00 +22°C° 0 mm 5 mps 762 mmHg 48%
20:00 +21°C° 0 mm 5 mps 762 mmHg 51%
21:00 +20°C° 0 mm 4 mps 762 mmHg 53%
22:00 +20°C° 0 mm 5 mps 762 mmHg 52%
23:00 +20°C° 0 mm 5 mps 762 mmHg 50%

12 May, Wednesday

Time Temperature Precipitation Wind Pressure Humidity
00:00 +20°C° 0 mm 6 mps 762 mmHg 49%
01:00 +20°C° 0 mm 6 mps 762 mmHg 50%
02:00 +19°C° 0 mm 6 mps 762 mmHg 51%
03:00 +19°C° 0 mm 6 mps 762 mmHg 52%
04:00 +19°C° 0 mm 6 mps 762 mmHg 53%
05:00 +19°C° 0 mm 6 mps 762 mmHg 54%
06:00 +19°C° 0 mm 6 mps 762 mmHg 55%
07:00 +19°C° 0 mm 6 mps 762 mmHg 52%
08:00 +20°C° 0 mm 6 mps 762 mmHg 49%
09:00 +21°C° 0 mm 6 mps 762 mmHg 46%
10:00 +22°C° 0 mm 7 mps 762 mmHg 43%
11:00 +23°C° 0 mm 7 mps 762 mmHg 40%
12:00 +24°C° 0 mm 7 mps 762 mmHg 37%
13:00 +24°C° 0 mm 7 mps 762 mmHg 35%
14:00 +26°C° 0 mm 7 mps 762 mmHg 33%
15:00 +27°C° 0 mm 7 mps 762 mmHg 32%
16:00 +26°C° 0 mm 6 mps 761 mmHg 35%
17:00 +25°C° 0 mm 5 mps 761 mmHg 38%
18:00 +25°C° 0 mm 4 mps 761 mmHg 42%
19:00 +22°C° 0 mm 4 mps 761 mmHg 45%
20:00 +21°C° 0 mm 4 mps 761 mmHg 48%
21:00 +19°C° 0 mm 4 mps 761 mmHg 51%
22:00 +19°C° 0 mm 4 mps 761 mmHg 52%
23:00 +19°C° 0 mm 4 mps 761 mmHg 53%

13 May, Thursday

Time Temperature Precipitation Wind Pressure Humidity
00:00 +18°C° 0 mm 4 mps 761 mmHg 54%
01:00 +18°C° 0 mm 3 mps 761 mmHg 55%
02:00 +17°C° 0 mm 3 mps 761 mmHg 56%
03:00 +17°C° 0 mm 3 mps 761 mmHg 57%
04:00 +17°C° 0 mm 3 mps 761 mmHg 56%
05:00 +18°C° 0 mm 4 mps 761 mmHg 56%
06:00 +18°C° 0 mm 4 mps 761 mmHg 55%
07:00 +20°C° 0 mm 4 mps 761 mmHg 50%
08:00 +21°C° 0 mm 5 mps 761 mmHg 44%
09:00 +22°C° 0 mm 5 mps 761 mmHg 39%
10:00 +23°C° 0 mm 5 mps 761 mmHg 37%
11:00 +24°C° 0 mm 6 mps 761 mmHg 34%
12:00 +26°C° 0 mm 6 mps 761 mmHg 32%
13:00 +26°C° 0 mm 6 mps 761 mmHg 34%
14:00 +24°C° 0 mm 6 mps 762 mmHg 37%
15:00 +24°C° 0 mm 6 mps 762 mmHg 40%
16:00 +23°C° 0 mm 5 mps 762 mmHg 44%
17:00 +23°C° 0 mm 4 mps 762 mmHg 49%
18:00 +22°C° 0 mm 3 mps 762 mmHg 53%
19:00 +22°C° 0 mm 3 mps 762 mmHg 52%
20:00 +21°C° 0 mm 3 mps 762 mmHg 50%
21:00 +21°C° 0 mm 3 mps 762 mmHg 48%
22:00 +20°C° 0 mm 3 mps 762 mmHg 48%
23:00 +19°C° 0 mm 4 mps 762 mmHg 48%
Show more